GW3498 Weather Reports


Display with metric or nautical units.
time (UTC)temp
F
wind
direction
speed
MPH
gust
MPH
rain 1hr
in
rain 24hr
in
rain mn
in
humidity
%
barometer
mb
20260507120025 70 303 1.0 1.0 0.00 0.20 0.18 67 1012.7
20260507115035 70 237 1.0 3.0 0.00 0.20 0.18 69 1012.7
20260507114131 70 16 1.0 4.0 0.00 0.20 0.18 69 1012.8
20260507113023 70 212 1.0 2.0 0.00 0.20 0.18 71 1012.8
20260507112018 68 258 1.0 3.0 0.00 0.20 0.18 72 1012.8
20260507111034 69 268 1.0 3.0 0.00 0.20 0.18 72 1013.0
20260507110027 68 1 2.0 6.0 0.00 0.20 0.18 73 1013.0
20260507105022 69 259 0.0 1.0 0.00 0.20 0.18 70 1013.1
20260507104037 68 338 1.0 3.0 0.00 0.20 0.18 72 1013.2
20260507103030 68 320 1.0 2.0 0.00 0.20 0.18 73 1013.3
20260507102026 68 234 1.0 4.0 0.00 0.20 0.18 72 1013.4
20260507101019 68 226 1.0 2.0 0.00 0.20 0.18 71 1013.4
20260507100033 68 226 1.0 4.0 0.00 0.20 0.18 72 1013.4
20260507095027 67 198 1.0 2.0 0.00 0.20 0.18 73 1013.3
20260507094022 67 203 1.0 2.0 0.00 0.20 0.18 73 1013.4
20260507093016 66 170 1.0 3.0 0.00 0.20 0.18 74 1013.4
20260507092032 66 190 1.0 3.0 0.00 0.21 0.18 74 1013.2
20260507091027 65 221 1.0 2.0 0.00 0.21 0.18 78 1013.2
20260507090020 63 194 1.0 2.0 0.00 0.21 0.18 79 1013.2
20260507085057 63 226 1.0 2.0 0.00 0.21 0.18 80 1013.2
20260507084030 63 182 1.0 2.0 0.00 0.21 0.18 79 1013.3
20260507083045 61 217 0.0 2.0 0.00 0.21 0.18 83 1013.4
20260507082018 60 262 1.0 2.0 0.00 0.21 0.18 85 1013.5
20260507081033 60 238 1.0 6.0 0.00 0.21 0.18 86 1013.6
20260507080027 60 319 0.0 1.0 0.00 0.21 0.18 86 1013.6
20260507075044 60 24 0.0 2.0 0.00 0.21 0.18 89 1013.5
20260507074017 57 192 0.0 1.0 0.00 0.21 0.18 95 1013.6
20260507073031 56 24 0.0 1.0 0.00 0.21 0.18 98 1013.6
20260507072027 55 355 1.0 2.0 0.00 0.21 0.18 99 1013.8
20260507071021 55 8 1.0 3.0 0.00 0.21 0.18 99 1013.8
20260507070035 55 317 0.0 1.0 0.00 0.21 0.18 99 1013.4
20260507065029 55 310 0.0 1.0 0.00 0.21 0.18 99 1013.3
20260507064024 55 192 0.0 1.0 0.00 0.21 0.18 99 1013.1
20260507063038 55 181 0.0 1.0 0.00 0.21 0.18 99 1013.1
20260507062034 55 212 0.0 1.0 0.00 0.21 0.18 99 1013.1
20260507061027 55 151 0.0 1.0 0.00 0.21 0.18 99 1013.1
20260507060021 55 0.0 0.0 0.00 0.22 0.18 99 1013.0
20260507055035 55 0.0 0.0 0.00 0.23 0.18 99 1013.1
20260507054030 54 0.0 0.0 0.00 0.23 0.18 99 1013.0
20260507053024 54 0.0 0.0 0.00 0.23 0.18 99 1013.1
20260507052020 54 0.0 0.0 0.00 0.24 0.18 99 1013.2
20260507051054 54 0.0 0.0 0.00 0.24 0.18 99 1013.2
20260507050028 53 7 0.0 1.0 0.00 0.24 0.18 99 1013.1
20260507045023 53 0 0.0 1.0 0.00 0.24 0.18 99 1013.0
20260507044018 53 20 0.0 2.0 0.00 0.24 0.18 99 1013.0
20260507043033 53 0.0 0.0 0.00 0.24 0.18 99 1012.9
20260507042027 53 0.0 0.0 0.00 0.24 0.18 99 1013.0
20260507041021 53 0.0 0.0 0.00 0.24 0.18 99 1013.0
20260507040036 53 0.0 0.0 0.01 0.24 0.18 99 1013.0
20260507035030 53 0.0 0.0 0.01 0.24 0.18 99 1012.8
20260507034025 53 0.0 0.0 0.04 0.24 0.18 99 1012.8
20260507033019 53 333 0.0 1.0 0.05 0.24 0.18 99 1012.7
20260507032054 53 0.0 0.0 0.06 0.24 0.18 99 1012.7
20260507031027 53 0.0 0.0 0.07 0.24 0.18 99 1012.8
20260507025017 53 0.0 0.0 0.06 0.23 0.17 99 1012.9
20260507024030 53 0.0 0.0 0.04 0.20 0.14 99 1012.8
20260507023026 53 0.0 0.0 0.04 0.19 0.13 99 1012.9
20260507022021 53 0.0 0.0 0.06 0.18 0.12 99 1012.7
20260507021034 53 0.0 0.0 0.07 0.17 0.11 99 1012.7
20260507020029 53 0.0 0.0 0.08 0.18 0.11 98 1012.8
20260507015025 53 0.0 0.0 0.08 0.18 0.11 98 1012.9
20260507014018 53 0.0 0.0 0.07 0.17 0.10 98 1012.9
20260507013033 53 176 0.0 1.0 0.07 0.16 0.09 98 1013.0
20260507012027 53 177 0.0 1.0 0.05 0.13 0.06 98 1012.9
20260507011024 53 0.0 0.0 0.03 0.11 0.04 97 1013.0
20260507010018 53 194 0.0 1.0 0.03 0.10 0.03 97 1012.9
20260507005034 53 199 0.0 1.0 0.03 0.10 0.03 97 1013.1
20260507004028 53 185 0.0 1.0 0.03 0.10 0.03 96 1013.0
20260507003023 54 185 0.0 1.0 0.02 0.09 0.02 96 1013.2
20260507002018 54 182 1.0 1.0 0.01 0.08 0.01 95 1013.2
20260507001033 54 162 1.0 3.0 0.01 0.08 0.01 93 1013.1
20260507000027 55 180 0.0 1.0 0.00 0.07 0.00 92 1013.1
20260506235021 55 183 0.0 2.0 0.00 0.07 0.00 91 1013.1
20260506234036 55 177 1.0 2.0 0.00 0.07 0.00 90 1013.1
20260506233030 55 144 1.0 7.0 0.00 0.07 0.00 90 1013.0
20260506232047 55 170 1.0 2.0 0.00 0.07 0.00 90 1013.2
20260506231019 55 161 0.0 2.0 0.00 0.07 0.00 90 1013.2
20260506230034 55 182 1.0 2.0 0.00 0.07 0.00 90 1013.2
20260506225029 55 187 1.0 3.0 0.00 0.07 0.00 90 1013.3
20260506224023 55 169 1.0 2.0 0.00 0.07 0.00 91 1013.3
20260506223017 55 181 1.0 2.0 0.00 0.07 0.00 91 1013.4
20260506222032 55 176 1.0 2.0 0.00 0.07 0.00 91 1013.4
20260506221028 56 175 1.0 2.0 0.00 0.07 0.00 90 1013.4
20260506220021 56 168 1.0 3.0 0.00 0.07 0.07 88 1013.5
20260506215035 56 177 1.0 3.0 0.00 0.07 0.07 86 1013.4
20260506214030 56 164 1.0 3.0 0.00 0.07 0.07 86 1013.4
20260506213024 56 192 1.0 2.0 0.00 0.07 0.07 87 1013.3
20260506212038 56 166 1.0 2.0 0.00 0.07 0.07 91 1013.2
20260506211033 56 181 0.0 1.0 0.00 0.07 0.07 93 1013.4
20260506210027 56 175 0.0 1.0 0.00 0.07 0.07 93 1013.4
20260506205024 56 166 0.0 1.0 0.00 0.07 0.07 94 1013.5
20260506204016 56 235 0.0 1.0 0.00 0.07 0.07 93 1013.7
20260506203031 56 157 0.0 1.0 0.00 0.07 0.07 93 1013.7
20260506202024 56 177 0.0 1.0 0.00 0.07 0.07 94 1013.8
20260506201020 56 182 0.0 1.0 0.00 0.07 0.07 93 1013.7
20260506200035 56 147 0.0 1.0 0.00 0.07 0.07 93 1013.7
20260506195030 56 150 0.0 1.0 0.00 0.07 0.07 93 1013.8
20260506194027 56 0.0 0.0 0.00 0.07 0.07 93 1013.7
20260506193020 56 347 0.0 1.0 0.00 0.07 0.07 92 1013.6
20260506192036 56 49 0.0 1.0 0.00 0.07 0.07 92 1013.6
20260506191030 56 37 0.0 2.0 0.00 0.07 0.07 92 1013.2
20260506190105 56 355 0.0 1.0 0.00 0.07 0.07 92 1013.2
20260506185020 56 350 0.0 2.0 0.00 0.07 0.07 92 1013.1
20260506184035 56 314 0.0 2.0 0.02 0.07 0.07 91 1013.0
20260506183029 56 357 0.0 1.0 0.02 0.07 0.07 91 1013.0
20260506182023 56 359 0.0 2.0 0.02 0.07 0.07 90 1012.9
20260506181018 56 243 0.0 1.0 0.02 0.07 0.07 90 1013.0
20260506180032 57 4 1.0 1.0 0.02 0.07 0.07 88 1013.0
20260506175109 58 95 1.0 3.0 0.02 0.07 0.07 83 1012.9
20260506174021 59 113 1.0 2.0 0.00 0.05 0.05 80 1013.0
20260506173036 59 289 0.0 2.0 0.00 0.05 0.05 80 1012.9
20260506172030 59 117 1.0 3.0 0.00 0.05 0.05 79 1012.7
20260506171024 60 102 0.0 1.0 0.00 0.05 0.05 79 1012.7
20260506170039 60 154 0.0 1.0 0.00 0.05 0.05 77 1012.6
20260506165034 60 194 1.0 4.0 0.00 0.05 0.05 76 1012.8
20260506164028 60 173 0.0 1.0 0.00 0.05 0.05 75 1012.9
20260506163024 60 223 0.0 1.0 0.00 0.05 0.05 75 1013.0
20260506162018 60 197 0.0 1.0 0.00 0.05 0.05 77 1013.0
20260506161033 60 141 0.0 1.0 0.00 0.05 0.05 76 1012.8
20260506160027 60 217 0.0 1.0 0.00 0.05 0.05 76 1012.9
20260506155022 61 93 0.0 2.0 0.00 0.05 0.05 75 1013.1
20260506154016 61 150 1.0 3.0 0.00 0.05 0.05 73 1013.0
20260506153032 61 189 0.0 2.0 0.00 0.05 0.05 75 1013.1
20260506152027 61 138 1.0 3.0 0.00 0.05 0.05 74 1013.0
20260506151023 61 144 1.0 2.0 0.00 0.05 0.05 74 1013.1
20260506150017 61 106 0.0 3.0 0.00 0.05 0.05 73 1013.1
20260506145031 61 141 1.0 3.0 0.00 0.05 0.05 74 1013.1
20260506144026 62 193 1.0 3.0 0.00 0.05 0.05 74 1013.1
20260506143021 62 153 1.0 2.0 0.00 0.05 0.05 69 1013.0
20260506142035 63 208 1.0 4.0 0.00 0.05 0.05 67 1012.9
20260506141030 63 188 2.0 6.0 0.00 0.05 0.05 66 1013.1
20260506140024 64 173 2.0 7.0 0.00 0.05 0.05 65 1013.0
20260506135039 64 160 1.0 4.0 0.00 0.05 0.05 64 1013.0
20260506134034 64 220 2.0 7.0 0.00 0.05 0.05 64 1013.0
20260506133028 64 191 2.0 6.0 0.00 0.05 0.05 64 1013.1
20260506132022 65 178 2.0 6.0 0.00 0.05 0.05 64 1013.1
20260506131019 65 170 2.0 4.0 0.00 0.05 0.05 63 1013.0
20260506130033 66 148 1.0 3.0 0.00 0.05 0.05 63 1013.1
20260506125028 66 136 1.0 4.0 0.00 0.05 0.05 62 1013.1
20260506124022 65 172 2.0 6.0 0.00 0.05 0.05 60 1013.2
20260506123017 65 182 2.0 7.0 0.00 0.05 0.05 62 1013.4
20260506122032 66 171 3.0 7.0 0.00 0.05 0.05 60 1013.2
20260506121027 66 203 2.0 4.0 0.00 0.05 0.05 60 1013.2